TimeEDT,TemperatureF,Dew PointF,Humidity,Sea Level PressureIn,VisibilityMPH,Wind Direction,Wind SpeedMPH,Gust SpeedMPH,PrecipitationIn,Events,Conditions,WindDirDegrees,DateUTC
12:56 AM,73.0,69.1,87,30.11,10.0,NE,16.1,23.0,N/A,,Overcast,40,2013-10-14 04:56:00
1:45 AM,73.0,69.1,87,30.09,9.0,NNE,19.6,25.3,N/A,,Overcast,30,2013-10-14 05:45:00
1:56 AM,72.0,69.1,91,30.10,9.0,NNE,15.0,25.3,N/A,,Mostly Cloudy,30,2013-10-14 05:56:00
2:56 AM,73.0,69.1,87,30.10,9.0,NE,18.4,27.6,N/A,,Overcast,40,2013-10-14 06:56:00
3:27 AM,72.0,69.1,91,30.08,9.0,NNE,17.3,23.0,N/A,,Scattered Clouds,30,2013-10-14 07:27:00
3:37 AM,72.0,69.1,91,30.08,9.0,NNE,15.0,25.3,N/A,,Mostly Cloudy,30,2013-10-14 07:37:00
3:56 AM,73.0,69.1,87,30.09,10.0,NNE,17.3,24.2,N/A,,Overcast,30,2013-10-14 07:56:00
4:56 AM,72.0,68.0,87,30.11,10.0,NNE,13.8,-,N/A,,Overcast,20,2013-10-14 08:56:00
5:56 AM,71.1,68.0,90,30.11,9.0,NNE,18.4,-,N/A,,Overcast,20,2013-10-14 09:56:00
6:33 AM,72.0,68.0,87,30.10,10.0,NNE,17.3,-,N/A,,Overcast,20,2013-10-14 10:33:00
6:56 AM,72.0,68.0,87,30.12,9.0,NNE,15.0,24.2,N/A,,Overcast,20,2013-10-14 10:56:00
7:14 AM,71.1,68.0,90,30.10,9.0,NNE,15.0,21.9,N/A,,Overcast,20,2013-10-14 11:14:00
7:26 AM,72.0,69.1,91,30.11,8.0,NNE,13.8,-,N/A,,Overcast,20,2013-10-14 11:26:00
7:56 AM,72.0,69.1,91,30.13,8.0,NNE,16.1,-,N/A,,Overcast,20,2013-10-14 11:56:00
8:56 AM,73.0,68.0,84,30.14,9.0,NNE,18.4,24.2,N/A,,Overcast,20,2013-10-14 12:56:00
9:56 AM,73.0,68.0,84,30.14,8.0,NNE,18.4,26.5,N/A,,Overcast,20,2013-10-14 13:56:00
10:06 AM,73.0,68.0,84,30.13,8.0,NNE,20.7,26.5,N/A,,Overcast,20,2013-10-14 14:06:00
10:52 AM,73.4,68.0,83,30.13,9.0,NNE,21.9,29.9,N/A,,Overcast,20,2013-10-14 14:52:00
10:56 AM,73.0,68.0,84,30.14,9.0,NNE,17.3,29.9,N/A,,Overcast,20,2013-10-14 14:56:00
11:19 AM,73.0,68.0,84,30.13,8.0,North,19.6,27.6,N/A,,Overcast,10,2013-10-14 15:19:00
11:44 AM,71.1,68.0,90,30.13,5.0,North,15.0,28.8,0.00,Rain,Light Rain,10,2013-10-14 15:44:00
11:54 AM,71.6,69.8,94,30.12,6.0,North,18.4,27.6,0.00,Rain,Light Rain,10,2013-10-14 15:54:00
11:56 AM,71.1,69.1,93,30.14,7.0,NNE,20.7,27.6,0.00,Rain,Light Rain,20,2013-10-14 15:56:00
12:04 PM,71.1,68.0,90,30.12,9.0,North,15.0,26.5,0.00,,Overcast,10,2013-10-14 16:04:00
12:56 PM,72.0,68.0,87,30.13,10.0,North,21.9,27.6,0.00,,Overcast,10,2013-10-14 16:56:00
1:56 PM,72.0,66.9,84,30.11,10.0,North,23.0,29.9,N/A,,Overcast,10,2013-10-14 17:56:00
2:12 PM,72.0,66.9,84,30.10,9.0,North,19.6,28.8,N/A,,Overcast,10,2013-10-14 18:12:00
2:36 PM,71.1,66.0,84,30.09,10.0,NNE,20.7,28.8,N/A,,Overcast,20,2013-10-14 18:36:00
2:56 PM,71.1,66.9,87,30.10,9.0,NNE,20.7,31.1,N/A,,Overcast,20,2013-10-14 18:56:00
3:56 PM,71.1,66.0,84,30.10,9.0,NNE,23.0,31.1,N/A,,Overcast,20,2013-10-14 19:56:00
4:56 PM,72.0,66.0,81,30.10,10.0,NNE,19.6,29.9,N/A,,Overcast,20,2013-10-14 20:56:00
5:05 PM,72.0,64.9,78,30.08,10.0,North,21.9,28.8,N/A,,Overcast,10,2013-10-14 21:05:00
5:33 PM,72.0,64.9,78,30.08,10.0,North,18.4,29.9,N/A,,Overcast,10,2013-10-14 21:33:00
5:56 PM,71.1,64.9,81,30.10,10.0,North,23.0,29.9,N/A,,Overcast,10,2013-10-14 21:56:00
6:56 PM,71.1,64.9,81,30.12,10.0,NNE,21.9,27.6,N/A,,Overcast,20,2013-10-14 22:56:00
7:56 PM,71.1,64.0,78,30.13,10.0,NNE,20.7,27.6,N/A,,Overcast,20,2013-10-14 23:56:00
8:56 PM,70.0,64.0,81,30.12,10.0,North,18.4,26.5,N/A,,Overcast,10,2013-10-15 00:56:00
9:56 PM,70.0,64.0,81,30.12,10.0,NNE,18.4,24.2,N/A,,Overcast,20,2013-10-15 01:56:00
10:56 PM,70.0,64.0,81,30.12,10.0,NNE,18.4,25.3,N/A,,Overcast,20,2013-10-15 02:56:00
11:56 PM,69.1,64.0,84,30.12,10.0,NNE,17.3,25.3,N/A,,Overcast,20,2013-10-15 03:56:00